[[{"header":{"parameterUnit":"m.s-1","parameterCategory":1,"la1":30.2991,"la2":30.254,"lo1":-89.0895,"lo2":-89.0444,"dy":0.0017,"dx":0.0017,"nx":28,"ny":28,"refTime":"2025-01-28T09:00:00:Z","depth":0,"parameterNumber":2,"parameterNumberName":"U-component_of_WINDS"},"data":[0,0,0,0,0,0,0,0,0,0,0,0,0,0,0,0,0,0,0,0,0,0,0,0,0,0,0,0,0,0,0,0,0,0,0,0,0,0,0,0,0,0,0,0,0,0,0,0,0,0,0,0,0,0,0,0,0,0,0.5955,0.5956,0,0.6056,0.6057,0.6059,0.6086,0.6086,0.6085,0.6085,0.619,0.6194,0.6197,0,0,0,0,0,0,0,0,0,0,0,0,0,0.5789,0.5792,0.5955,0.5956,0.5958,0.6056,0.6058,0.6059,0.6087,0.6086,0.6085,0.6084,0.6189,0.6193,0.6197,0,0,0,0,0,0,0,0,0,0,0,0,0,0.5873,0.5793,0.5955,0.5983,0.5987,0.6056,0.6058,0.6059,0.6087,0.6086,0.6085,0.6084,0.6188,0.6193,0.6198,0.6247,0,0,0.6213,0.6216,0,0,0,0,0,0,0,0,0.5868,0.5879,0.5978,0.5981,0.5985,0.6058,0.6038,0.6122,0.6087,0.6049,0.6085,0.6084,0.6147,0.6156,0.6177,0.6252,0.6256,0.6214,0.6217,0.6219,0.622,0,0,0,0,0,0,0,0.5862,0.5875,0.5995,0.5979,0.5984,0.5992,0.6003,0.6054,0.6102,0.6052,0.6054,0.6066,0.6149,0.6172,0.6179,0.6258,0.6214,0.6218,0.6221,0.6223,0.638,0.6381,0,0,0,0,0,0,0.5851,0.5869,0.5992,0.5998,0.5923,0.5996,0.6008,0.6035,0.6101,0.611,0.6066,0.6067,0.6163,0.6173,0.6183,0.6245,0.6219,0.6224,0.6227,0.6379,0.638,0.6381,0,0,0,0,0,0,0.5847,0.5862,0.5988,0.5935,0.5951,0.5999,0.603,0.6038,0.606,0.6112,0.6121,0.608,0.6163,0.6176,0.6231,0.6249,0.6226,0.6231,0.6377,0.6379,0.6381,0.637,0,0,0,0,0,0,0.5842,0.586,0.5878,0.5935,0.5954,0.6033,0.6031,0.6041,0.6069,0.607,0.6128,0.6136,0.6163,0.6223,0.6236,0.6256,0.6235,0.6376,0.6378,0.638,0.6369,0.6371,0.6373,0,0,0,0,0,0.5836,0.5871,0.5879,0.5894,0.5977,0.6034,0.6045,0.6075,0.607,0.6089,0.6123,0.6134,0.6245,0.6229,0.6243,0.6265,0.6375,0.6378,0.638,0.6368,0.637,0.6372,0,0,0,0,0,0,0.5816,0.5879,0.5888,0.5942,0.5983,0.6038,0.6063,0.6077,0.6119,0.6119,0.6155,0.6168,0.6221,0.6248,0.6229,0.6317,0.6311,0.6316,0.6296,0.6299,0.6301,0.6293,0.6239,0,0,0,0,0,0.5818,0.5857,0.5911,0.5953,0.5973,0.6015,0.604,0.606,0.6104,0.6121,0.6158,0.6201,0.6245,0.6274,0.6318,0.6373,0.6387,0.6395,0.6397,0.6399,0.6403,0.6436,0.644,0.639,0.639,0.639,0,0,0.5821,0.5861,0.5884,0.595,0.5984,0.6025,0.6029,0.6072,0.6104,0.6128,0.6182,0.6211,0.6261,0.6316,0.6343,0.6341,0.642,0.6402,0.6403,0.6406,0.6439,0.6443,0.6448,0.6392,0.6391,0.6391,0,0,0.585,0.5883,0.5923,0.5957,0.6007,0.6035,0.6045,0.6099,0.6119,0.6174,0.6194,0.6232,0.6308,0.6343,0.637,0.6414,0.6427,0.6428,0.6438,0.6469,0.6473,0.6477,0.6493,0.6498,0.6432,0.6432,0.6432,0,0.5848,0.5911,0.5942,0.5984,0.6014,0.6037,0.6078,0.611,0.6172,0.6193,0.619,0.6286,0.6321,0.6386,0.6397,0.6418,0.6431,0.6421,0.647,0.6474,0.6478,0.6494,0.65,0.6431,0.6432,0.6432,0.6432,0,0.5907,0.595,0.5976,0.6036,0.6068,0.6109,0.6148,0.6177,0.6195,0.6223,0.628,0.6323,0.6376,0.6393,0.6411,0.6461,0.6459,0.6463,0.6457,0.6482,0.6497,0.6504,0.6431,0.6431,0.6431,0.6431,0,0,0.5924,0.6001,0.601,0.6038,0.6096,0.6131,0.6174,0.6226,0.6251,0.6294,0.6332,0.6396,0.6401,0.6432,0.6454,0.6481,0.6514,0.6482,0.6484,0.6487,0.6573,0.657,0.6576,0.6523,0.6524,0.6526,0.6569,0,0.596,0.6037,0.6067,0.6131,0.6172,0.6196,0.6234,0.6275,0.6303,0.6343,0.6375,0.642,0.6422,0.6441,0.6469,0.6504,0.6532,0.6501,0.656,0.6561,0.6546,0.6584,0.658,0.6619,0.6575,0.6576,0.6577,0,0.6011,0.6054,0.6122,0.6176,0.6195,0.6228,0.6279,0.6316,0.6364,0.6383,0.6418,0.6439,0.6487,0.6479,0.6546,0.6525,0.6551,0.6572,0.6574,0.658,0.657,0.6591,0.6632,0.6638,0.6587,0.6586,0.6585,0,0.6017,0.6092,0.6143,0.6166,0.6231,0.6254,0.6282,0.6329,0.6358,0.6403,0.6423,0.6473,0.6501,0.654,0.6574,0.6565,0.6638,0.6633,0.6656,0.6655,0.6669,0.6668,0.6715,0.6686,0.6686,0.6686,0.6686,0,0.6053,0.6094,0.6146,0.6177,0.6224,0.6259,0.6305,0.6335,0.6376,0.6414,0.6439,0.6474,0.6517,0.6559,0.6586,0.6638,0.665,0.6667,0.6674,0.6665,0.6663,0.6682,0.668,0.6688,0.6687,0.6687,0.6687,0,0.6067,0.6104,0.616,0.6218,0.6233,0.6265,0.6315,0.6346,0.6376,0.6424,0.6438,0.6485,0.6535,0.6573,0.6639,0.6657,0.6712,0.672,0.6696,0.6699,0.672,0.6718,0.6781,0.6791,0.6756,0.6756,0.6756,0,0.6088,0.6119,0.618,0.6207,0.6235,0.6279,0.6309,0.6346,0.6377,0.6434,0.6459,0.6511,0.6555,0.6634,0.6675,0.6725,0.6734,0.6753,0.6742,0.6732,0.6734,0.6732,0.6736,0.6754,0.6754,0.6754,0.6754,0,0.612,0.6137,0.618,0.623,0.6266,0.6307,0.6348,0.6369,0.6414,0.6448,0.6499,0.6533,0.66,0.6651,0.6706,0.6737,0.6753,0.6758,0.6766,0.6756,0.6741,0.675,0.67,0.6756,0.6756,0.6756,0.6755,0.6755,0.6139,0.6168,0.6216,0.6263,0.6298,0.6337,0.637,0.6404,0.6448,0.6504,0.6524,0.6577,0.6626,0.6701,0.6732,0.6775,0.6775,0.6787,0.679,0.6792,0.6791,0.6735,0.6785,0.6785,0.6785,0.6785,0.6785,0,0.6173,0.6205,0.6248,0.6305,0.6343,0.6355,0.6403,0.6433,0.648,0.6523,0.6566,0.6625,0.6676,0.6721,0.6774,0.68,0.6809,0.6813,0.6811,0.6818,0.6788,0.6776,0.6805,0.6805,0.6804,0.6804,0.6804,0.6804,0.6195,0.6246,0.6269,0.6338,0.6371,0.6423,0.6448,0.6485,0.652,0.6585,0.6627,0.6656,0.6701,0.6758,0.6805,0.6817,0.6836,0.6837,0.6851,0.6822,0.682,0.6818,0.6806,0.6841,0.6841,0.6878,0.6878,0.6879]},{"header":{"parameterUnit":"m.s-1","parameterCategory":1,"la1":30.2991,"la2":30.254,"lo1":-89.0895,"lo2":-89.0444,"dy":0.0017,"dx":0.0017,"nx":28,"ny":28,"refTime":"2025-01-28T09:00:00:Z","depth":0,"parameterNumber":3,"parameterNumberName":"V-component_of_WINDS"},"data":[0,0,0,0,0,0,0,0,0,0,0,0,0,0,0,0,0,0,0,0,0,0,0,0,0,0,0,0,0,0,0,0,0,0,0,0,0,0,0,0,0,0,0,0,0,0,0,0,0,0,0,0,0,0,0,0,0,0,-0.2874,-0.2874,0,-0.2839,-0.2839,-0.2838,-0.2816,-0.2815,-0.2815,-0.2815,-0.2779,-0.2778,-0.2778,0,0,0,0,0,0,0,0,0,0,0,0,0,-0.2922,-0.2921,-0.2874,-0.2874,-0.2873,-0.2839,-0.2839,-0.2838,-0.2816,-0.2815,-0.2815,-0.2815,-0.278,-0.2779,-0.2778,0,0,0,0,0,0,0,0,0,0,0,0,0,-0.2895,-0.2921,-0.2874,-0.2858,-0.2856,-0.2839,-0.2839,-0.2838,-0.2816,-0.2815,-0.2815,-0.2815,-0.278,-0.2779,-0.2777,-0.2774,0,0,-0.2774,-0.2773,0,0,0,0,0,0,0,0,-0.2897,-0.2894,-0.2861,-0.2859,-0.2857,-0.2832,-0.2842,-0.2817,-0.2816,-0.2831,-0.2815,-0.2815,-0.2797,-0.2794,-0.2788,-0.2772,-0.2771,-0.2774,-0.2773,-0.2772,-0.2772,0,0,0,0,0,0,0,-0.2899,-0.2895,-0.286,-0.286,-0.2858,-0.2852,-0.2848,-0.2837,-0.2816,-0.283,-0.2828,-0.2824,-0.2796,-0.2789,-0.2787,-0.277,-0.2774,-0.2773,-0.2772,-0.2771,-0.275,-0.275,0,0,0,0,0,0,-0.2903,-0.2897,-0.2861,-0.2859,-0.2877,-0.2852,-0.2847,-0.284,-0.2816,-0.2812,-0.2824,-0.2823,-0.2792,-0.2789,-0.2786,-0.278,-0.2772,-0.2771,-0.277,-0.275,-0.275,-0.275,0,0,0,0,0,0,-0.2904,-0.29,-0.2863,-0.2878,-0.2872,-0.2851,-0.2843,-0.2839,-0.2833,-0.2812,-0.2808,-0.2822,-0.2791,-0.2787,-0.2777,-0.2778,-0.2771,-0.2769,-0.275,-0.275,-0.275,-0.2768,0,0,0,0,0,0,-0.2906,-0.2901,-0.2899,-0.2878,-0.2872,-0.2855,-0.2843,-0.2839,-0.2831,-0.2829,-0.2808,-0.2804,-0.2791,-0.2779,-0.2776,-0.2776,-0.2768,-0.2749,-0.275,-0.275,-0.2767,-0.2769,-0.277,0,0,0,0,0,-0.2908,-0.2906,-0.2899,-0.2895,-0.2869,-0.2855,-0.2851,-0.2836,-0.2831,-0.2829,-0.2816,-0.2805,-0.2779,-0.2778,-0.2774,-0.2775,-0.2749,-0.275,-0.275,-0.2767,-0.2769,-0.277,0,0,0,0,0,0,-0.2928,-0.2903,-0.2895,-0.2886,-0.2873,-0.2851,-0.2848,-0.2839,-0.2826,-0.2825,-0.2806,-0.2802,-0.2793,-0.2783,-0.2783,-0.277,-0.2763,-0.2762,-0.2777,-0.2779,-0.278,-0.2782,-0.2767,0,0,0,0,0,-0.2932,-0.2922,-0.29,-0.2895,-0.2888,-0.287,-0.2863,-0.2852,-0.2837,-0.2832,-0.2817,-0.2803,-0.2792,-0.2785,-0.2773,-0.2766,-0.2761,-0.2764,-0.2766,-0.2767,-0.2767,-0.2762,-0.2764,-0.2751,-0.2751,-0.2751,0,0,-0.2939,-0.2924,-0.2919,-0.2898,-0.2887,-0.2877,-0.2865,-0.2855,-0.2848,-0.283,-0.2819,-0.2808,-0.2792,-0.2783,-0.2778,-0.2774,-0.2769,-0.2768,-0.2769,-0.2768,-0.2763,-0.2764,-0.2765,-0.2752,-0.2752,-0.2752,0,0,-0.2946,-0.2934,-0.2928,-0.2917,-0.2899,-0.2887,-0.2885,-0.2865,-0.2857,-0.2846,-0.2832,-0.2823,-0.2804,-0.2793,-0.2785,-0.2789,-0.2779,-0.2786,-0.2793,-0.2789,-0.279,-0.2791,-0.2792,-0.2792,-0.2786,-0.2786,-0.2786,0,-0.2957,-0.2942,-0.2926,-0.2917,-0.2909,-0.2892,-0.2886,-0.2875,-0.2855,-0.285,-0.2845,-0.2821,-0.2809,-0.2797,-0.2798,-0.2792,-0.279,-0.2787,-0.2791,-0.2792,-0.2792,-0.2793,-0.2794,-0.2786,-0.2786,-0.2786,-0.2786,0,-0.2956,-0.2946,-0.2943,-0.2924,-0.2915,-0.2908,-0.289,-0.2884,-0.2874,-0.2862,-0.2851,-0.2836,-0.282,-0.2817,-0.2807,-0.2804,-0.2802,-0.2795,-0.2787,-0.2795,-0.2795,-0.2795,-0.2788,-0.2787,-0.2787,-0.2787,0,0,-0.2975,-0.2948,-0.2947,-0.2938,-0.2917,-0.2909,-0.2901,-0.2886,-0.2881,-0.2868,-0.286,-0.2844,-0.2838,-0.2828,-0.2817,-0.2814,-0.2818,-0.2807,-0.2806,-0.2809,-0.2813,-0.2818,-0.2818,-0.2811,-0.2811,-0.2811,-0.2814,0,-0.298,-0.2964,-0.2949,-0.2939,-0.2929,-0.2913,-0.2906,-0.2893,-0.2882,-0.2872,-0.286,-0.2849,-0.2841,-0.2835,-0.2831,-0.2818,-0.2818,-0.2818,-0.2804,-0.2803,-0.2808,-0.2819,-0.2824,-0.2827,-0.2814,-0.2814,-0.2814,0,-0.2982,-0.297,-0.2958,-0.2939,-0.2934,-0.2928,-0.2914,-0.2905,-0.2889,-0.2882,-0.2872,-0.286,-0.2851,-0.2845,-0.2831,-0.2832,-0.2825,-0.2818,-0.2818,-0.2815,-0.2809,-0.2816,-0.2828,-0.2828,-0.2814,-0.2814,-0.2814,0,-0.2997,-0.2977,-0.2968,-0.296,-0.2938,-0.2934,-0.2924,-0.2909,-0.2901,-0.2888,-0.2883,-0.287,-0.2862,-0.2852,-0.2837,-0.2834,-0.2826,-0.2819,-0.2819,-0.2819,-0.2817,-0.2817,-0.2828,-0.2814,-0.2814,-0.2814,-0.2814,0,-0.3003,-0.2996,-0.2974,-0.2968,-0.296,-0.2944,-0.2936,-0.2926,-0.2912,-0.2904,-0.289,-0.2882,-0.2864,-0.2854,-0.2843,-0.2833,-0.283,-0.2824,-0.2821,-0.2825,-0.2825,-0.282,-0.2819,-0.2814,-0.2814,-0.2814,-0.2814,0,-0.3017,-0.3002,-0.299,-0.297,-0.2965,-0.296,-0.2943,-0.2936,-0.2925,-0.2914,-0.2911,-0.2893,-0.2881,-0.2865,-0.2849,-0.2841,-0.2833,-0.2828,-0.2838,-0.2836,-0.2837,-0.2837,-0.2844,-0.2844,-0.2831,-0.2831,-0.2831,0,-0.3022,-0.3016,-0.2995,-0.2989,-0.298,-0.2969,-0.2961,-0.2945,-0.2937,-0.292,-0.2916,-0.2903,-0.2891,-0.2873,-0.2858,-0.2845,-0.284,-0.2843,-0.2838,-0.2842,-0.284,-0.284,-0.2839,-0.2845,-0.2845,-0.2845,-0.2845,0,-0.3031,-0.3024,-0.3013,-0.2999,-0.299,-0.2978,-0.2966,-0.2961,-0.2943,-0.2935,-0.2922,-0.2913,-0.2896,-0.2884,-0.2869,-0.2859,-0.2849,-0.2847,-0.2846,-0.285,-0.2856,-0.2852,-0.2841,-0.2847,-0.2847,-0.2847,-0.2846,-0.2846,-0.304,-0.3035,-0.3019,-0.3007,-0.2997,-0.2985,-0.2979,-0.2966,-0.2955,-0.294,-0.2931,-0.2919,-0.2904,-0.2884,-0.2874,-0.2865,-0.2861,-0.286,-0.286,-0.286,-0.2861,-0.2858,-0.2862,-0.2862,-0.2862,-0.2862,-0.2862,0,-0.3049,-0.3038,-0.3027,-0.3011,-0.3001,-0.2993,-0.2979,-0.2972,-0.2961,-0.2948,-0.2937,-0.2923,-0.2911,-0.2896,-0.2882,-0.2878,-0.2873,-0.2875,-0.2874,-0.2872,-0.2865,-0.2867,-0.2879,-0.2879,-0.2879,-0.2879,-0.2879,-0.2879,-0.3052,-0.3042,-0.3033,-0.3018,-0.3007,-0.2995,-0.2988,-0.2978,-0.2967,-0.2952,-0.2942,-0.2932,-0.2918,-0.2903,-0.2892,-0.2888,-0.2883,-0.2886,-0.2881,-0.2874,-0.2873,-0.2871,-0.2873,-0.2886,-0.2886,-0.2889,-0.2889,-0.2889]}]]